Date String (YYYY-MM-DD hh:mm:ss) UTC,Instrument flags,Ambient pressure (hPa),Sample flow (lpm),Bypass flow (lpm),Sample temperature (°C),Ambient temperature (°C),ASC tube jacket temperature (°C),LED temperature (°C),Box temperature (°C),Sample RH (%),Span deviation,Mass concentration (μg/m³),Mass concentration (μg/m³),Mass concentration (μg/m³)
DateTimeUTC,F1_M11,P_M11,Q1_M11,Q2_M11,T1_M11,T2_M11,T3_M11,T4_M11,T5_M11,U1_M11,ZSPAN_M11,X0_M11,X2_M11,X1_M11
2022-08-18 19:00:00,,0830.9,5.00,0.00,29.2,27.4,00.0,37.9,30.9,22.7,0001.2,0015.29,0007.54,0006.71
2022-08-18 19:01:00,,0830.9,5.00,0.00,29.2,27.6,00.0,37.9,31.0,22.5,0001.4,0015.52,0007.52,0006.70
2022-08-18 19:02:00,,0830.9,5.00,0.00,29.2,27.8,00.0,37.9,31.1,22.6,0000.0,0015.46,0007.55,0006.71
2022-08-18 19:03:00,,0830.9,5.00,0.00,29.2,28.0,00.0,38.0,31.2,21.6,0000.0,0015.40,0007.57,0006.74
2022-08-18 19:04:00,,0830.9,5.00,0.00,29.3,28.1,00.0,38.0,31.3,21.7,0000.0,0015.27,0007.62,0006.77
2022-08-18 19:05:00,,0830.9,5.00,0.00,29.3,28.3,00.0,38.0,31.3,22.4,0000.0,0014.63,0007.65,0006.78
2022-08-18 19:06:00,,0830.9,5.01,0.00,29.4,28.0,00.0,38.0,31.2,22.0,0000.0,0015.44,0007.66,0006.79
2022-08-18 19:07:00,,0830.9,4.99,0.00,29.3,27.3,00.0,37.9,31.0,22.1,0000.0,0015.88,0007.67,0006.81
2022-08-18 19:08:00,,0830.9,5.01,0.00,29.2,27.1,00.0,37.9,31.0,22.2,0000.0,0016.29,0007.68,0006.81
2022-08-18 19:09:00,,0830.9,5.00,0.00,29.2,27.1,00.0,37.9,30.9,22.5,0000.0,0016.17,0007.67,0006.81
2022-08-18 19:10:00,,0830.9,5.00,0.00,29.1,27.2,00.0,37.9,30.8,23.1,0000.0,0015.99,0007.70,0006.84
2022-08-18 19:11:00,,0830.9,5.01,0.00,29.1,27.4,00.0,37.9,30.9,23.0,0000.0,0016.88,0007.73,0006.86
2022-08-18 19:12:00,,0830.9,5.00,0.00,29.2,27.6,00.0,37.9,31.0,22.6,0000.0,0016.88,0007.74,0006.88
2022-08-18 19:13:00,,0830.9,4.99,0.00,29.2,27.8,00.0,37.9,31.1,22.9,0000.0,0016.61,0007.71,0006.88
2022-08-18 19:14:00,,0830.9,4.99,0.00,29.2,28.0,00.0,37.9,31.2,22.1,0000.0,0016.96,0007.66,0006.85
2022-08-18 19:15:00,,0831.0,5.01,0.00,29.3,28.2,00.0,38.0,31.3,22.2,0000.0,0018.58,0007.68,0006.85
2022-08-18 19:16:00,,0830.9,4.99,0.00,29.3,28.3,00.0,38.0,31.3,22.1,0001.1,0019.30,0007.67,0006.86
2022-08-18 19:17:00,,0830.9,5.00,0.00,29.4,28.2,00.0,38.0,31.3,22.5,0000.0,0018.54,0007.71,0006.87
2022-08-18 19:18:00,,0830.9,5.00,0.00,29.3,27.5,00.0,37.9,31.0,22.5,0000.0,0019.65,0007.73,0006.87
2022-08-18 19:19:00,,0830.9,5.01,0.00,29.3,27.1,00.0,37.9,31.0,22.6,0002.1,0020.40,0007.72,0006.88
2022-08-18 19:20:00,,0830.9,4.99,0.00,29.2,27.2,00.0,37.9,31.0,22.8,0001.8,0021.33,0007.72,0006.90
2022-08-18 19:21:00,,0830.9,4.99,0.00,29.2,27.3,00.0,37.9,30.9,22.4,0001.5,0021.15,0007.71,0006.90
2022-08-18 19:22:00,,0830.9,5.01,0.00,29.1,27.4,00.0,37.9,30.9,22.7,0000.9,0020.54,0007.70,0006.93
2022-08-18 19:23:00,,0830.9,5.00,0.00,29.2,27.6,00.0,37.9,31.0,21.6,0001.0,0021.00,0007.70,0006.95
2022-08-18 19:24:00,,0830.9,5.00,0.00,29.2,27.8,00.0,37.9,31.1,22.2,0000.9,0020.26,0007.73,0006.98
2022-08-18 19:25:00,,0830.9,4.99,0.00,29.3,28.0,00.0,38.0,31.2,22.6,0000.5,0019.30,0007.75,0007.01
2022-08-18 19:26:00,,0830.9,5.01,0.00,29.3,28.2,00.0,38.0,31.3,22.3,0001.1,0017.50,0007.73,0007.02
2022-08-18 19:27:00,,0830.9,5.00,0.00,29.4,28.3,00.0,38.0,31.3,21.5,0001.6,0017.38,0007.75,0007.02
2022-08-18 19:28:00,,0830.8,4.99,0.00,29.4,28.0,00.0,38.0,31.3,21.7,0001.7,0018.41,0007.75,0007.03
2022-08-18 19:29:00,,0830.7,5.01,0.00,29.3,27.3,00.0,37.9,31.1,22.0,0001.8,0017.32,0007.76,0007.05
2022-08-18 19:30:00,,0830.7,4.99,0.00,29.3,27.1,00.0,37.9,31.0,22.1,0001.8,0016.16,0007.79,0007.07
2022-08-18 19:31:00,,0830.8,5.01,0.00,29.2,27.2,00.0,37.9,30.9,22.6,0001.9,0015.43,0007.82,0007.08
2022-08-18 19:32:00,,0830.8,5.00,0.00,29.2,27.3,00.0,37.9,30.9,23.0,0002.2,0015.74,0007.86,0007.09
2022-08-18 19:33:00,,0830.8,4.99,0.00,29.2,27.5,00.0,37.9,30.9,22.7,0002.6,0015.57,0007.87,0007.06
2022-08-18 19:34:00,,0830.8,5.00,0.00,29.2,27.7,00.0,37.9,31.0,22.4,0003.2,0014.93,0007.88,0007.03
2022-08-18 19:35:00,,0830.8,5.00,0.00,29.2,27.9,00.0,37.9,31.1,22.6,0003.0,0015.12,0007.86,0007.00
2022-08-18 19:36:00,,0830.8,5.00,0.00,29.3,28.1,00.0,38.0,31.2,22.7,0003.1,0015.01,0007.85,0006.99
2022-08-18 19:37:00,,0830.8,5.01,0.00,29.3,28.2,00.0,38.0,31.3,22.0,0002.9,0015.10,0007.83,0006.98
2022-08-18 19:38:00,,0830.8,4.99,0.00,29.4,28.3,00.0,38.0,31.3,21.8,0002.6,0014.54,0007.79,0006.97
2022-08-18 19:39:00,,0830.8,5.01,0.00,29.4,27.8,00.0,38.0,31.2,21.6,0002.7,0014.06,0007.76,0006.97
2022-08-18 19:40:00,,0830.8,4.98,0.00,29.3,27.2,00.0,37.9,31.0,22.5,0003.0,0013.73,0007.73,0006.96
2022-08-18 19:41:00,,0830.7,5.01,0.00,29.3,27.1,00.0,37.9,31.0,21.9,0000.5,0013.81,0007.70,0006.93
2022-08-18 19:42:00,,0830.7,4.99,0.00,29.2,27.2,00.0,37.9,31.0,22.3,0000.0,0013.57,0007.68,0006.91
2022-08-18 19:43:00,,0830.7,5.01,0.00,29.2,27.4,00.0,37.9,31.0,21.7,0000.0,0013.52,0007.65,0006.91
2022-08-18 19:44:00,,0830.6,5.00,0.00,29.2,27.6,00.0,37.9,31.0,22.5,0000.0,0013.61,0007.63,0006.91
2022-08-18 19:45:00,,0830.6,5.00,0.00,29.2,27.8,00.0,37.9,31.1,23.0,0000.0,0013.82,0007.59,0006.91
2022-08-18 19:46:00,,0830.6,5.01,0.00,29.3,28.0,00.0,38.0,31.2,22.7,0000.0,0014.43,0007.58,0006.90
2022-08-18 19:47:00,,0830.6,4.98,0.00,29.3,28.2,00.0,38.0,31.3,22.1,0000.0,0014.60,0007.61,0006.89
2022-08-18 19:48:00,,0830.6,5.00,0.00,29.4,28.3,00.0,38.0,31.4,22.3,0000.0,0014.75,0007.63,0006.89
2022-08-18 19:49:00,,0830.6,5.01,0.00,29.4,28.2,00.0,38.0,31.3,21.5,0000.0,0014.76,0007.63,0006.88
2022-08-18 19:50:00,,0830.5,5.00,0.00,29.4,27.5,00.0,38.0,31.1,21.9,0000.5,0014.81,0007.63,0006.85
2022-08-18 19:51:00,,0830.5,5.01,0.00,29.3,27.1,00.0,37.9,31.1,22.2,0000.0,0015.36,0007.68,0006.83
2022-08-18 19:52:00,,0830.6,5.00,0.00,29.3,27.1,00.0,37.9,31.1,22.2,0000.0,0016.06,0007.70,0006.80
2022-08-18 19:53:00,,0830.5,5.00,0.00,29.2,27.3,00.0,37.9,31.0,21.9,0000.0,0016.54,0007.66,0006.78
2022-08-18 19:54:00,,0830.6,5.00,0.00,29.2,27.4,00.0,37.9,31.0,22.0,0001.4,0016.74,0007.64,0006.75
2022-08-18 19:55:00,,0830.6,5.01,0.00,29.2,27.6,00.0,37.9,31.1,21.5,0002.0,0016.31,0007.64,0006.74
2022-08-18 19:56:00,,0830.6,5.01,0.00,29.3,27.8,00.0,38.0,31.2,21.6,0002.1,0015.83,0007.63,0006.72
2022-08-18 19:57:00,,0830.5,5.00,0.00,29.3,28.0,00.0,38.0,31.3,21.8,0002.0,0015.03,0007.61,0006.70
2022-08-18 19:58:00,,0830.5,5.01,0.00,29.3,28.2,00.0,38.0,31.3,21.7,0001.4,0015.25,0007.60,0006.67
2022-08-18 19:59:00,,0830.5,5.01,0.00,29.4,28.3,00.0,38.0,31.4,21.8,0001.2,0015.28,0007.59,0006.66
